Location: The Jewett Observatory
(46.7288°N, 117.1525°W)
Time: 03:52:17
(UTC-07:00)

Meteor 1-28 Rocket - Visible Passes

Search period start: 24 July 2017 00:00
Search period end: 03 August 2017 00:00
Orbit: 506 x 525 km, 97.2° (Epoch: 23 July)

Date Brightness Start Highest point End Pass type
(mag) Time Alt. Az. Time Alt. Az. Time Alt. Az.
25 Jul 6.5 04:40:04 10° ESE 04:42:27 16° ENE 04:44:50 10° NNE visible
26 Jul 6.9 04:26:25 10° E 04:27:46 12° ENE 04:29:06 10° NE visible
31 Jul 6.4 04:44:44 10° ESE 04:47:22 18° ENE 04:49:59 10° NNE visible
01 Aug 6.7 04:30:51 10° E 04:32:40 13° ENE 04:34:28 10° NNE visible
